Weather in Volyshovo

Russia / Pskov Oblast     57°37′16″N   29°41′09″E
temp.,
°C
wind,
m/s
gust,
m/s
humid.,
%
clouds,
%
prec.,
mm/h
press.,
hPa
HPBL,
m
19 may, wed
wed1900:00+15nw1196100 1.8 100111
03:00+15se2396100 2.3 100167
06:00+15ese229685 0.1 100073
09:00+17sse369062 1.4 1000583
12:00+17s359085 1.3 999486
15:00+16s489499 2.8 1000517
18:00+14w2598100 13.6 1002250
21:00+14sw229729 14.3 100338
20 may, thu
thu2000:00+12wnw2498100 0.0 1004136
03:00+11wnw2497100 0.1 1005235
06:00+10wnw3697100 0.1 1005286
09:00+10nw4696100 0.1 1004356
12:00+9nw61097100 3.6 1003388
15:00+9nw51097100 5.8 1004537
18:00+9wnw51097100 1.1 1004602
21:00+8wnw61296100 3.6 1005660
21 may, fri
fri2100:00+7w41294100 0.3 1006442
03:00+6w512935 0.3 1007399
06:00+6wsw512910 0.0 1008397
09:00+10sw69730 0.0 1008725
12:00+13sw795671 0.0 10092068
15:00+13wsw710635 0.3 10091832
18:00+14sw612563 0.2 10102153
21:00+10sw5117369 0.2 1011308
22 may, sat
sat2200:00+8sw41085100 0.0 1013313
03:00+9ssw41280100 0.0 1013441
06:00+8s41385100 0.0 1013323
09:00+13s61372100 0.0 1012742
12:00+15s71469100 0.2 10111726
15:00+11sw51391100 2.4 1012867
18:00+12s2693100 0.2 1011212
21:00+12sw51393100 1.1 1011589
23 may, sun
sun2300:00+11sse3798100 0.7 1011197
03:00+10sse31197100 0.8 1009271
06:00+11sse41295100 0.0 1008394
09:00+13sse51092100 0.0 1006493
12:00+15s61290100 0.7 10041174
15:00+13s51194100 2.1 1003771
18:00+13s3794100 2.7 1001336
21:00+11e1199100 6.8 99938